TimeCDT,TemperatureF,Dew PointF,Humidity,Sea Level PressureIn,VisibilityMPH,Wind Direction,Wind SpeedMPH,Gust SpeedMPH,PrecipitationIn,Events,Conditions,WindDirDegrees,DateUTC
12:45 AM,77.0,73.4,89,29.81,6.0,South,10.4,-,N/A,,Mostly Cloudy,170,2013-09-14 05:45:00
1:43 AM,75.2,73.4,94,29.80,5.0,SSW,4.6,-,N/A,Rain,Light Rain,210,2013-09-14 06:43:00
2:48 AM,75.2,73.4,94,29.79,6.0,SSE,10.4,-,N/A,,Mostly Cloudy,150,2013-09-14 07:48:00
3:50 AM,77.0,73.4,89,29.79,6.0,SSE,5.8,-,N/A,,Mostly Cloudy,160,2013-09-14 08:50:00
4:47 AM,77.0,73.4,89,29.79,6.0,SSE,5.8,-,N/A,,Mostly Cloudy,150,2013-09-14 09:47:00
5:51 AM,77.0,73.4,89,29.81,6.0,ESE,3.5,-,N/A,,Mostly Cloudy,120,2013-09-14 10:51:00
6:42 AM,75.2,73.4,94,29.81,6.0,South,8.1,-,N/A,,Overcast,190,2013-09-14 11:42:00
7:46 AM,73.4,71.6,94,29.85,2.0,SSE,16.1,-,N/A,Rain,Rain,160,2013-09-14 12:46:00
8:06 AM,73.4,71.6,94,29.85,5.0,SSE,5.8,-,N/A,Rain,Light Rain,160,2013-09-14 13:06:00
8:48 AM,75.2,73.4,94,29.85,7.0,SE,9.2,-,N/A,,Overcast,140,2013-09-14 13:48:00
9:42 AM,80.6,75.2,84,29.86,7.0,SE,9.2,-,N/A,,Overcast,130,2013-09-14 14:42:00
10:41 AM,82.4,73.4,74,29.85,7.0,SE,10.4,-,N/A,,Mostly Cloudy,130,2013-09-14 15:41:00
11:42 AM,84.2,75.2,74,29.85,8.0,SE,12.7,-,N/A,,Overcast,130,2013-09-14 16:42:00
12:42 PM,84.2,75.2,74,29.86,8.0,ESE,10.4,-,N/A,,Mostly Cloudy,120,2013-09-14 17:42:00
1:42 PM,84.2,77.0,79,29.82,8.0,East,8.1,-,N/A,,Mostly Cloudy,100,2013-09-14 18:42:00
2:41 PM,84.2,77.0,79,29.81,8.0,ESE,9.2,-,N/A,,Mostly Cloudy,120,2013-09-14 19:41:00
3:47 PM,84.2,75.2,74,29.81,7.0,ESE,10.4,-,N/A,,Mostly Cloudy,110,2013-09-14 20:47:00
4:41 PM,82.4,75.2,79,29.80,7.0,ESE,10.4,-,N/A,,Mostly Cloudy,120,2013-09-14 21:41:00
5:44 PM,80.6,75.2,84,29.83,7.0,East,12.7,-,N/A,,Mostly Cloudy,100,2013-09-14 22:44:00
6:47 PM,78.8,75.2,89,29.84,6.0,ESE,9.2,-,N/A,,Overcast,110,2013-09-14 23:47:00
7:40 PM,80.6,73.4,79,29.85,6.0,East,8.1,-,N/A,,Overcast,100,2013-09-15 00:40:00
8:44 PM,80.6,75.2,84,29.87,6.0,ESE,6.9,-,N/A,,Overcast,110,2013-09-15 01:44:00
9:48 PM,80.6,75.2,84,29.85,6.0,ESE,5.8,-,N/A,,Overcast,110,2013-09-15 02:48:00
10:47 PM,78.8,75.2,89,29.89,6.0,East,5.8,-,N/A,,Overcast,90,2013-09-15 03:47:00
11:46 PM,78.8,75.2,89,29.89,6.0,East,5.8,-,N/A,,Overcast,100,2013-09-15 04:46:00